Showing default

KINEIS-2D, 62930

Orbit data source: Space-Track

KINEIS-2D, 62930 is a French payload satellite in SSO that was launched on Sat, 08 Feb 2025 UTC via an ELECTRON launch vehicle from the Rocket Lab Launch Complex (RLLC). Payload-class satellites include a variety of spacecraft equipped with specific instruments for various scientific and technological missions. These include communications satellites like Starlink; space stations such as the ISS; scientific satellites like the Hubble; Earth observation satellites from companies like Planet Labs, Umbra, and HawkEye 360; GPS; miniature CubeSats for education and research; and military/defense satellites.

Loading next visibility...
Identifier
62930, 2025-028C
Orbit
SSO
Last TLE update
5 hours ago
Origin
Manufacturer
KINEIS
Mission
Operational Commercial Communications
Bus & Motor
CUBESAT 16U, Unknown motor
Mass
28 kg wet, 28 kg dry
Launch date (UTC)
2025-02-08 (3 months ago)
Launch vehicle
ELECTRON
Launch site
Rocket Lab Launch Complex (RLLC)
Object type
Payload
Rocket body
Debris
Shape & HBR
Box + 2 Pan + 1 Ant, 1.6 m
Radar Cross Section
0.229 m², Medium (>0.1 m² and < 1m²)

Expand to show TLE details & history

TLE from 5 hours ago
0 KINEIS-2D
1 62930U 25028C   25129.09272538  .00002100  00000-0  32771-3 0  9998
2 62930  97.9798 183.5329 0004677  75.7158 284.4569 14.73915503 13155
Epoch: 2025-05-09T02:13Z
Definitive object data (Epoch: 2025-05-09T02:13:31.472Z)
Latitude
-0.00009°
Longitude
-77.00205°
Altitude
650.788 km
Speed
7.533 km/s
True Right ascension
12h 14m 07s
True Declination
0° 00' 00"
Sunlit
Object was in full shadow at TLE epoch
Visualization TLE readout
Latitude
-4.46484°
Longitude
-76.17871°
Altitude
651.688 km
Speed
7.532 km/s
Apparent Right ascension
09h 20m 07s
Apparent Declination
-43° 19' 01"
Sunlit
Object is in full shadow
Visualization observer readout
Local Sidereal Time
15:14:31
Azimuth
233.532° WSW
Elevation
-25.251°
Doppler factor
1
Orbital elements
Apogee altitude
648.934 km
Perigee altitude
642.364 km
Semi-major axis
7,023.786 km
Eccentricity
0.0004677
Inclination
97.9798°
RAAN
183.5329°
Arg. of periapsis
75.7158°
True anomaly
284.40499°
Mean anomaly
284.4569°
Eccentric anomaly
284.43095°
Mean motion
3.68711 °/min
BSTAR
0.00032771
Orbital period
97.64 mins
Loading maneuver chart data...
Loading SW <> Apogee altitude chart data...
Loading historical data...
Loading historical data...
Loading historical data...
Loading historical data...
Loading historical data...
Loading historical data...
Loading historical data...

KINEIS-2D Visibility forecast

Observer location: undefined°, undefined°

Span
Click to sort rows by Start time (UTC) header in descending order
Start Az.
Max El. time (UTC)
Max El. Az.
Max El.
End time (UTC)
End Az.
7 mins2025-05-09 15:50:34.922Z38.137° NE2025-05-09 15:53:34.922Z90.828° ESE28.414°2025-05-09 15:57:34.922Z160.306° S
5 mins2025-05-09 17:28:34.922Z323.56° NNW2025-05-09 17:30:34.922Z286.543° WNW20.522°2025-05-09 17:33:34.922Z243.213° WSW
5 mins2025-05-10 02:49:34.922Z108.764° ESE2025-05-10 02:51:34.922Z68.186° E24.821°2025-05-10 02:54:34.922Z16.872° NNE
6 mins2025-05-10 04:25:34.922Z218.06° SW2025-05-10 04:28:34.922Z274.066° WNW23.256°2025-05-10 04:31:34.922Z319.1° NNW
|